Showing default

OPS 9331 (IDSCS 16), 2862

Orbit data source: Space-Track

OPS 9331 (IDSCS 16), 2862 is a payload satellite owned by SAMSO (US) in GEO that was launched on Sat, 01 Jul 1967 UTC via a TITAN IIIC launch vehicle from the Air Force Eastern Test Range (AFETR). Payload-class satellites include a variety of spacecraft equipped with specific instruments for various scientific and technological missions. These include communications satellites like Starlink; space stations such as the ISS; scientific satellites like the Hubble; Earth observation satellites from companies like Planet Labs, Umbra, and HawkEye 360; GPS; miniature CubeSats for education and research; and military/defense satellites.

Not visible in the next 10 days
Identifier
2862, 1967-066A
Orbit
GEO
Country
Flag of USUS
Related business
Manufacturer
Philco-Ford WDL
Mission
Non-operational spacecraft
Bus & Motor
IDCSP, Unknown motor
Mass
45 kg wet, 45 kg dry
Launch date (UTC)
1967-07-01 (58 years ago)
Launch vehicle
TITAN IIIC
Launch site
Air Force Eastern Test Range (AFETR)
Object type
Payload
Rocket body
Debris
Shape & HBR
Unknown
Radar Cross Section
Medium (>0.1 m² and <1 m²)

Expand to show TLE details & history
Last TLE update: 7 hours ago

TLE from 7 hours ago
0 OPS 9331 (IDSCS 16)
1 02862U 67066A   25293.20094497 -.00000051  00000-0  00000-0 0  9996
2 02862   2.3134 102.5549 0062147 232.1140 121.2065  1.09955025134553
Epoch: 2025-10-20T04:49Z
TLE epoch observation values (Epoch: 2025-10-20T04:49:21.645Z)
Latitude
-0.26358°
Longitude
-4.78456°
Altitude
33,400.259 km
Speed
3.16 km/s
True Right ascension
06h 25m 50s
True Declination
0° 15' 48"
Sunlit
Object was in daylight at epoch
Visualization orbit readout
Latitude
Unknown
Longitude
Unknown
Altitude
Unknown
Speed
Unknown
Apparent Right ascension
Unknown
Apparent Declination
Unknown
Sunlit
N/A
Visualization observer readout
Local Sidereal Time
06:23:51
Azimuth
Unknown
Elevation
Unknown
Doppler factor
Unknown
Orbital elements
Apogee altitude
33,520.817 km
Perigee altitude
33,027.96 km
Semi-major axis
39,652.526 km
Eccentricity
0.00621
Inclination
2.3134°
RAAN
102.5549°
Arg. of periapsis
232.114°
True anomaly
121.81315°
Mean anomaly
121.2065°
Eccentric anomaly
121.51007°
Mean motion
0.27488 °/min
Orbital period
1,309.68 mins
BSTAR
0
Loading maneuver chart data...
Computing Atmospheric mass density...
Loading historical data...
Loading historical data...
Loading historical data...
Loading historical data...
Loading historical data...
Loading historical data...
Loading historical data...

Documentation

Showing up to 5 results
|